www.pogodaiklimat.ru

Погода и климат >> Архив погоды >> Таиланд >> Тхонг Пха Пхум


ПОГОДА в Тхонг Пха Пхум

  • Прогноз погоды в Тхонг Пха Пхум
  • Монитор погоды в Тхонг Пха Пхум

АРХИВ ПОГОДЫ в Тхонг Пха Пхум

Время (UTC), дата Ветер
(напр.,м/с)
 
Видим.   Явления Облачность Т
(С)
Тd
(С)
f
(%)
Тe
(С)
Тes
(С)
Комфортность P
(гПа)
Po
(гПа)
Тmin
(С)
Tmax
(С)
R
(мм)
R24
(мм)
S
(см)
09 17.04 штиль 0 5000 м мгла 3/3 600 м
[Cu med, cong]
+40.5 +17.7 27 +44 +52 опасность
перегрева
1005.4 994.6
12 17.04 штиль 0 5000 м мгла 3/0
[Cs]
+34.8 +20.5 43 +41 +41 опасность
перегрева
1005.8 994.8 +41.7
15 17.04 штиль 0 5000 м мгла 3/0
[Cs]
+32.0 +20.8 52 +39 +39 очень
душно
1009.7 998.5
18 17.04 штиль 0 4000 м мгла 3/0
[Cs]
+29.5 +20.4 58 +36 +36 очень
душно
1009.1 997.8
21 17.04 штиль 0 4000 м дымка 3/0
[Cs]
+26.7 +20.6 69 +33 +33 очень
душно
1008.0 996.6
00 18.04 штиль 0 4000 м дымка 3/0
[Cs]
+25.7 +21.2 76 +32 +34 очень
душно
1010.0 998.6 +25.5
03 18.04 С 3 5000 м мгла 3/0
[Cs]
+33.3 +20.1 46 +40 +51 опасность
солнечного
удара
1010.9 999.8
06 18.04 СЗ 3 5000 м мгла 3/0
[Cs]
+41.3 +16.5 24 +43 +60 опасность
перегрева
1007.9 997.1
09 18.04 С 3 5000 м мгла 3/0
[Cs]
+40.5 +19.8 30 +45 +52 опасность
перегрева
1004.4 993.6
12 18.04 штиль 0 4000 м мгла 3/0
[Cs]
+34.8 +22.6 49 +44 +44 опасность
перегрева
1005.8 994.8 +41.5
15 18.04 штиль 0 4000 м мгла 3/0
[Cs]
+31.7 +23.0 60 +42 +42 опасность
перегрева
1008.7 997.6
18 18.04 штиль 0 4000 м дымка 3/0
[Cs]
+29.5 +23.7 71 +40 +40 очень
душно
1008.7 997.5
21 18.04 штиль 0 4000 м дымка 3/0
[Cs]
+27.0 +23.3 80 +36 +36 очень
душно
1007.3 996.0
00 19.04 штиль 0 4000 м дымка 3/0
[Cs]
+25.6 +22.5 83 +34 +35 очень
душно
1008.5 997.1 +25.4
03 19.04 СЗ 4 5000 м мгла 3/0
[Cs]
+33.5 +23.1 55 +44 +53 опасность
перегрева
1009.6 998.5
06 19.04 С 5 5000 м мгла 3/0
[Cs]
+38.4 +22.4 40 +47 +58 опасность
перегрева
1007.4 996.5
09 19.04 С 5 5000 м мгла 3/0
[Cs]
+38.5 +21.7 38 +46 +50 опасность
перегрева
1004.7 993.9
12 19.04 штиль 0 5000 м мгла 3/0
[Cs]
+34.0 +22.9 52 +44 +44 опасность
перегрева
1005.6 994.6 +39.4
15 19.04 штиль 0 5000 м мгла 3/0
[Cs]
+30.8 +22.3 61 +40 +40 очень
душно
1008.5 997.3
18 19.04 штиль 0 4000 м дымка 3/0
[Cs]
+27.5 +21.2 69 +35 +35 очень
душно
1007.6 996.3
21 19.04 штиль 0 4000 м дымка 3/0
[Cs]
+25.0 +20.7 77 +31 +31 очень
душно
1006.9 995.5
00 20.04 штиль 0 5000 м дымка 3/3 600 м
[Sc Cs]
+24.7 +21.7 83 +32 +32 очень
душно
1008.2 996.8 +24.3
03 20.04 штиль 0 5000 м мгла 3/3 600 м
[Cu hum Cs]
+33.5 +23.9 57 +45 +59 опасность
перегрева
1008.7 997.6
06 20.04 СВ 3 5000 м мгла 3/0
[Cs]
+38.5 +22.7 40 +47 +64 опасность
перегрева
1006.1 995.3
09 20.04 штиль 0 5000 м мгла 3/0
[Cs]
+39.5 +20.7 34 +46 +56 опасность
перегрева
1002.6 991.8
12 20.04 штиль 0 5000 м мгла 3/0
[Cs]
+34.6 +23.7 53 +46 +46 опасность
перегрева
1002.9 991.9 +40.3
15 20.04 штиль 0 5000 м мгла 3/0
[Cs]
+31.4 +23.0 61 +42 +42 опасность
перегрева
1005.8 994.7
18 20.04 штиль 0 4000 м дымка 3/0
[Cs]
+29.3 +24.6 76 +42 +42 опасность
перегрева
1005.6 994.4
21 20.04 штиль 0 4000 м дымка 3/0
[Cs]
+27.2 +24.0 83 +38 +38 очень
душно
1005.0 993.7
00 21.04 штиль 0 4000 м дымка 3/0
[Cs]
+26.3 +24.0 87 +36 +37 очень
душно
1006.7 995.4 +26.0
03 21.04 штиль 0 5000 м мгла 3/1 600 м
[Cu hum Cs]
+33.2 +22.4 53 +42 +60 опасность
перегрева
1007.7 996.6
06 21.04 С 5 5000 м мгла 3/0
[Cs]
+38.7 +23.0 41 +48 +59 опасность
перегрева
1005.3 994.4
09 21.04 СЗ 6 5000 м мгла 3/0
[Cs]
+40.0 +19.1 30 +44 +47 опасность
перегрева
1002.4 991.6
12 21.04 штиль 0 4000 м мгла 3/0
[Cs]
+35.5 +22.5 47 +45 +45 опасность
перегрева
1002.4 991.5 +40.0
15 21.04 штиль 0 4000 м мгла 3/0
[Cs]
+31.5 +21.1 54 +39 +39 очень
душно
1005.3 994.2
18 21.04 штиль 0 4000 м дымка 3/0
[Cs]
+28.7 +22.2 68 +37 +37 очень
душно
1005.5 994.3
21 21.04 штиль 0 5000 м дымка 3/0
[Cs]
+27.5 +23.4 78 +37 +37 очень
душно
1004.8 993.6
00 22.04 штиль 0 4000 м дымка 3/0
[Cs]
+26.5 +24.3 88 +37 +38 очень
душно
1006.4 995.1 +26.3
03 22.04 штиль 0 4000 м мгла 3/0
[Cs]
+33.5 +23.4 56 +44 +63 опасность
перегрева
1007.7 996.6
06 22.04 штиль 0 5000 м мгла 3/3 600 м
[Cu hum Cs]
+40.3 +22.4 36 +49 +69 опасность
перегрева
1003.6 992.8
09 22.04 СВ 6 5000 м мгла 3/3 600 м
[Cu med, cong Cs]
+41.5 +20.0 29 +46 +49 опасность
перегрева
1000.9 990.2
12 22.04 штиль 0 4000 м гроза, ливневой дождь 10/4 300 м
[Cb cap As op]
+26.6 +24.7 89 +38 +38 очень
душно
1006.9 995.6 +42.0 6
15 22.04 штиль 0 4000 м дымка {гроза} 10/4 600 м
[Sc Ac lent Cs]
+26.5 +24.8 90 +38 +38 очень
душно
1008.8 997.5 0.4
18 22.04 штиль 0 4000 м дымка {гроза} 4/3 600 м
[Sc Cs]
+25.7 +24.7 94 +36 +36 очень
душно
1009.0 997.6 6
21 22.04 штиль 0 4000 м дымка 4/3 600 м
[Sc Cs]
+25.9 +24.6 93 +37 +37 очень
душно
1009.4 998.0
00 23.04 штиль 0 5000 м дымка 3/0
[Ac lent Cs]
+25.5 +24.0 91 +35 +36 очень
душно
1009.5 998.1 +25.2 6
03 23.04 штиль 0 10 км 3/0
[Cs]
+32.0 +23.3 60 +43 +61 опасность
перегрева
1010.1 998.9
06 23.04 штиль 0 10 км 3/3 600 м
[Cu med, cong]
+37.7 +22.8 43 +47 +68 опасность
перегрева
1007.7 996.7
09 23.04 ЮЗ 3 10 км 3/3 600 м
[Cu med, cong]
+40.5 +19.8 30 +45 +50 опасность
перегрева
1004.4 993.6
12 23.04 штиль 0 7000 м мгла 8/4 600 м
[Sc Ac trans Cs]
+35.7 +22.7 47 +45 +45 опасность
перегрева
1006.0 995.0 +41.2
15 23.04 штиль 0 6000 м дымка 8/3 600 м
[Cu med, cong Ac trans Cs]
+29.5 +24.8 76 +42 +42 опасность
перегрева
1009.6 998.4
18 23.04 штиль 0 4000 м дымка 3/0
[Cs]
+27.0 +24.1 84 +37 +37 очень
душно
1003.0 991.7
21 23.04 штиль 0 4000 м дымка 3/0
[Cs]
+26.0 +23.1 84 +35 +35 очень
душно
1009.0 997.6
00 24.04 штиль 0 5000 м дымка 3/0
[Cs]
+25.2 +22.7 86 +33 +34 очень
душно
1010.4 999.0 +24.7
03 24.04 штиль 0 7000 м мгла 3/0
[Cs]
+34.5 +24.6 56 +47 +66 опасность
перегрева
1010.7 999.7
06 24.04 штиль 0 7000 м мгла 3/3 600 м
[Cu med, cong]
+39.0 +20.3 34 +45 +65 опасность
перегрева
1007.5 996.6

 

Местоположение метеостанции Тхонг Пха Пхум (Таиланд): широта 14.75 долгота 98.63 высота над уровнем моря 99 м.

В архиве по умолчанию представлена погода в Тхонг Пха Пхум за последнюю неделю. Архивные данные за месяц целиком и за предыдущие месяцы, начиная с января 2011 года, Вы можете получить, выбрав интересующий диапазон дат из раскрывающегося списка и нажав кнопку "Ввод!".


*Определитесь, кто Вы:
робот инопланетянин человек

Внимание! Время в таблицах - всемирное. Для получения местного времени необходимо прибавить поправку, которая равна 7 ч.

Смотрите также архив погоды в соседних городах и на ближайших метеорологических станциях:

Погода в Тавое (Мьянма) (85 км)
Погода в Йе (Мьянма) (99 км)
Погода в Канчанабури (Таиланд) (126 км)
Погода в У-Тхонг Агромете (Таиланд) (143 км)
Погода в Умпханге (Таиланд) (144 км)
Погода в Суфанбури (Таиланд) (164 км)
Погода в Накхонпатхоме (Таиланд) (166 км)
Погода в Утай Тани (Таиланд) (167 км)
Погода в Чайнат Агромете (Таиланд) (172 км)
Погода в Накхон Саван (Таиланд) (201 км)

Пояснения к столбцам:

Ветер - указаны скорость ветра в м/с - средняя за 10 мин, порывы в срок и между сроками (в фигурных скобках) и направление, откуда дует ветер: С - северный, СВ - северо-восточный, В - восточный, ЮВ - юго-восточный, Ю - южный, ЮЗ - юго-западный, З - западный, СЗ - северо-западный.
Видимость - горизонтальная дальность видимости в метрах или километрах. При видимости от 1 до 10 км при отсутствии осадков обычно наблюдается дымка, при ухудшении видимости до 1 км и менее - туман. В сухую погоду видимость может ухудшаться дымом, пылью или мглою.
Явления - указаны атмосферные явления, наблюдавшиеся в срок или в последний час перед сроком; фигурными скобками обозначены явления, наблюдавшиеся между сроками (за 1-3 часа до срока); квадратными скобками обозначены град или гололедные отложения с указанием их диаметра в мм.
Облачность - указаны через наклонную черту общая и нижняя облачность в баллах и высота нижней границы облаков в метрах; квадратными скобками обозначены формы облаков: Ci - перистые, Cs - перисто-слоистые, Cc - перисто-кучевые, Ac - высококучевые, As - высокослоистые, Sc - слоисто-кучевые, Ns - слоисто-дождевые, Cu - кучевые, Cb - кучево-дождевые. Подробнее классификацию облаков см. в Атласе облаков (PDF).
T - Температура воздуха - температура, измеренная на высоте 2 м над землей.
Td - Температура точки росы - температура, при понижении до которой содержащийся в воздухе водяной пар достигнет насыщения.
f - Относительная влажность воздуха - влажноcть воздуха, измеренная на высоте 2 м над землей.
Te - Эффективная температура - температура, которую ощущает одетый по сезону человек в тени. Характеристика душности погоды. При расчете учитывается влияние влажности воздуха и скорости ветра на теплоощущения человека.
Tes - Эффективная температура на солнце - температура, которую ощущает человек, с поправкой на солнечный нагрев. Характеристика знойности погоды. Зависит от высоты солнца над горизонтом, облачности и скорости ветра. Ночью, в пасмурную погоду, а также при ветре 12 м/с и более поправка равна нулю.
P - Атмосферное давление - приведенное к уровню моря атмосферное давление.
Po - Атмосферное давление - измеренное на уровне метеостанции атмосферное давление.
Tmin - Минимальная температура - минимум температуры воздуха на высоте 2 м над землей.
Tmax - Максимальная температура - максимум температуры воздуха на высоте 2 м над землей.
R - Количество осадков - Количество выпавших осадков за период времени, мм. При наведении курсора мыши на число - период времени, за который выпало указанное количество осадков.
R24 - Количество осадков - Количество выпавших осадков за 24 часа, мм.
S - Снежный покров - Высота снежного покрова, см. При наведении курсора мыши на число - состояние снежного покрова и степень покрытия местности в баллах.